QPF
0.00 0.00 0.00 0.00 0.00 0.00 0.00 0.00 0.00 0.02 0.02 0.02 0.02 0.02 0.03 0.04 0.03 0.02 0.01 0.01 0.00 0.00 0.00 0.00 0.00 0.00 0.00 0.00 0.00 0.00 0.00 0.00 0.00 0.00 0.00 0.00 0.00 0.00 0.00 0.00 0.00 0.01 0.01 0.01 0.01 0.01 0.01 0.01 0.01
0.00 0.00 0.00 0.00 0.00 0.00 0.00 0.00 0.01 0.02 0.02 0.02 0.03 0.03 0.05 0.03 0.03 0.02 0.02 0.02 0.01 0.00 0.00 0.00 0.00 0.00 0.00 0.00 0.00 0.00 0.00 0.00 0.00 0.00 0.00 0.00 0.00 0.00 0.00 0.00 0.00 0.00 0.01 0.01 0.01 0.01 0.01 0.01 0.01
0.00 0.00 0.00 0.00 0.00 0.00 0.00 0.01 0.02 0.03 0.05 0.04 0.04 0.03 0.04 0.07 0.07 0.04 0.04 0.05 0.03 0.02 0.01 0.00 0.00 0.00 0.00 0.00 0.00 0.00 0.00 0.00 0.00 0.00 0.00 0.00 0.00 0.00 0.00 0.00 0.00 0.00 0.00 0.00 0.01 0.01 0.01 0.01 0.01
0.00 0.00 0.00 0.00 0.00 0.00 0.00 0.01 0.03 0.04 0.04 0.05 0.04 0.02 0.04 0.09 0.08 0.08 0.09 0.10 0.08 0.05 0.04 0.02 0.01 0.00 0.00 0.00 0.00 0.00 0.00 0.00 0.00 0.00 0.00 0.00 0.00 0.00 0.00 0.00 0.00 0.00 0.00 0.00 0.01 0.01 0.01 0.01 0.01
0.00 0.00 0.00 0.00 0.00 0.00 0.00 0.01 0.02 0.04 0.03 0.04 0.03 0.03 0.05 0.09 0.11 0.15 0.15 0.13 0.11 0.10 0.07 0.04 0.03 0.01 0.01 0.00 0.00 0.00 0.00 0.00 0.00 0.00 0.00 0.00 0.00 0.00 0.00 0.00 0.00 0.00 0.00 0.00 0.01 0.01 0.01 0.01 0.01
0.00 0.00 0.00 0.00 0.00 0.00 0.00 0.01 0.02 0.02 0.02 0.03 0.02 0.02 0.08 0.16 0.16 0.21 0.14 0.09 0.08 0.09 0.06 0.04 0.03 0.02 0.01 0.01 0.01 0.01 0.01 0.01 0.01 0.01 0.00 0.00 0.00 0.00 0.01 0.01 0.01 0.01 0.01 0.01 0.01 0.01 0.01 0.01 0.01
0.00 0.00 0.00 0.00 0.00 0.00 0.00 0.01 0.02 0.03 0.04 0.04 0.02 0.02 0.07 0.10 0.10 0.15 0.16 0.11 0.07 0.06 0.05 0.03 0.04 0.03 0.02 0.02 0.02 0.02 0.01 0.01 0.01 0.01 0.01 0.01 0.00 0.00 0.01 0.01 0.01 0.01 0.01 0.01 0.01 0.01 0.02 0.02 0.02
0.00 0.00 0.00 0.00 0.00 0.00 0.01 0.01 0.03 0.04 0.04 0.03 0.02 0.02 0.05 0.07 0.07 0.09 0.13 0.16 0.14 0.10 0.06 0.04 0.03 0.03 0.03 0.03 0.03 0.02 0.02 0.02 0.02 0.01 0.01 0.01 0.02 0.01 0.01 0.01 0.02 0.02 0.01 0.01 0.02 0.02 0.02 0.03 0.02
0.00 0.00 0.00 0.00 0.00 0.00 0.01 0.02 0.03 0.03 0.05 0.03 0.02 0.02 0.08 0.13 0.09 0.10 0.15 0.19 0.14 0.09 0.05 0.03 0.02 0.02 0.03 0.03 0.03 0.03 0.02 0.02 0.02 0.02 0.02 0.02 0.02 0.02 0.02 0.02 0.02 0.03 0.03 0.03 0.03 0.03 0.03 0.03 0.03
0.00 0.00 0.00 0.00 0.00 0.00 0.01 0.02 0.03 0.04 0.05 0.03 0.02 0.03 0.04 0.07 0.09 0.11 0.13 0.15 0.11 0.08 0.05 0.04 0.03 0.02 0.03 0.04 0.04 0.03 0.03 0.03 0.02 0.02 0.03 0.03 0.03 0.03 0.03 0.03 0.04 0.04 0.05 0.04 0.04 0.04 0.04 0.03 0.02
0.00 0.00 0.00 0.00 0.00 0.00 0.01 0.01 0.02 0.04 0.04 0.03 0.03 0.03 0.04 0.06 0.09 0.11 0.14 0.13 0.11 0.10 0.06 0.04 0.03 0.02 0.02 0.03 0.04 0.04 0.03 0.03 0.03 0.03 0.03 0.03 0.04 0.04 0.04 0.04 0.05 0.05 0.05 0.04 0.04 0.05 0.04 0.03 0.02
0.00 0.00 0.00 0.01 0.01 0.01 0.01 0.01 0.01 0.02 0.03 0.03 0.03 0.04 0.06 0.08 0.09 0.10 0.11 0.10 0.09 0.08 0.06 0.04 0.04 0.04 0.03 0.03 0.03 0.03 0.04 0.05 0.04 0.05 0.06 0.06 0.06 0.06 0.06 0.06 0.06 0.05 0.06 0.06 0.05 0.04 0.04 0.04 0.03
0.00 0.00 0.00 0.01 0.01 0.02 0.02 0.02 0.01 0.02 0.02 0.03 0.04 0.07 0.09 0.10 0.10 0.10 0.09 0.10 0.08 0.07 0.07 0.07 0.06 0.05 0.04 0.04 0.05 0.04 0.04 0.05 0.06 0.05 0.06 0.05 0.04 0.04 0.04 0.04 0.04 0.05 0.06 0.06 0.06 0.05 0.05 0.06 0.04
0.00 0.00 0.01 0.01 0.01 0.02 0.01 0.01 0.01 0.02 0.03 0.04 0.06 0.07 0.08 0.09 0.11 0.12 0.11 0.10 0.10 0.11 0.09 0.09 0.08 0.06 0.06 0.07 0.07 0.06 0.05 0.04 0.05 0.04 0.04 0.04 0.04 0.03 0.03 0.04 0.05 0.06 0.06 0.05 0.06 0.06 0.07 0.07 0.05
0.01 0.01 0.01 0.02 0.02 0.02 0.01 0.01 0.02 0.04 0.05 0.05 0.06 0.05 0.06 0.10 0.12 0.11 0.10 0.09 0.11 0.11 0.09 0.08 0.09 0.09 0.09 0.09 0.08 0.08 0.08 0.07 0.05 0.05 0.04 0.03 0.03 0.04 0.05 0.06 0.07 0.07 0.07 0.06 0.05 0.05 0.06 0.05 0.05
0.01 0.01 0.01 0.02 0.02 0.01 0.01 0.02 0.03 0.05 0.05 0.04 0.03 0.03 0.04 0.06 0.07 0.06 0.08 0.11 0.21 0.15 0.11 0.08 0.07 0.09 0.10 0.10 0.09 0.13 0.12 0.12 0.09 0.06 0.04 0.04 0.03 0.04 0.05 0.05 0.05 0.05 0.04 0.05 0.05 0.04 0.05 0.05 0.04
0.00 0.00 0.01 0.01 0.01 0.01 0.01 0.01 0.03 0.05 0.04 0.03 0.03 0.03 0.04 0.04 0.04 0.04 0.06 0.18 0.18 0.15 0.11 0.08 0.06 0.06 0.05 0.06 0.08 0.15 0.10 0.07 0.07 0.07 0.06 0.06 0.05 0.05 0.05 0.04 0.03 0.04 0.03 0.03 0.04 0.04 0.04 0.04 0.04
0.00 0.00 0.00 0.01 0.01 0.01 0.01 0.02 0.03 0.04 0.05 0.04 0.04 0.04 0.06 0.08 0.05 0.04 0.06 0.10 0.11 0.09 0.09 0.07 0.06 0.04 0.05 0.05 0.07 0.10 0.09 0.06 0.06 0.05 0.05 0.06 0.05 0.04 0.06 0.05 0.05 0.05 0.05 0.04 0.04 0.05 0.06 0.07 0.05
0.00 0.00 0.00 0.01 0.01 0.01 0.01 0.02 0.04 0.06 0.05 0.04 0.04 0.04 0.05 0.07 0.05 0.06 0.07 0.08 0.10 0.09 0.06 0.05 0.05 0.04 0.05 0.05 0.06 0.08 0.07 0.05 0.06 0.07 0.06 0.06 0.06 0.05 0.05 0.06 0.07 0.08 0.08 0.06 0.05 0.05 0.06 0.06 0.05
0.00 0.00 0.00 0.00 0.00 0.01 0.01 0.05 0.08 0.10 0.09 0.06 0.04 0.03 0.04 0.03 0.03 0.04 0.05 0.07 0.08 0.06 0.05 0.05 0.04 0.05 0.07 0.06 0.06 0.06 0.05 0.04 0.05 0.07 0.07 0.07 0.07 0.07 0.07 0.08 0.08 0.07 0.06 0.06 0.05 0.05 0.05 0.05 0.06
0.00 0.00 0.00 0.00 0.01 0.02 0.03 0.07 0.09 0.10 0.11 0.10 0.08 0.06 0.06 0.05 0.04 0.03 0.04 0.07 0.11 0.08 0.07 0.06 0.05 0.05 0.06 0.06 0.06 0.05 0.04 0.03 0.03 0.04 0.05 0.06 0.05 0.05 0.07 0.07 0.06 0.05 0.04 0.04 0.04 0.04 0.03 0.04 0.05
0.00 0.00 0.00 0.00 0.01 0.01 0.02 0.05 0.05 0.08 0.11 0.08 0.08 0.09 0.09 0.08 0.06 0.04 0.04 0.04 0.03 0.04 0.04 0.04 0.04 0.04 0.05 0.05 0.06 0.05 0.04 0.03 0.03 0.04 0.04 0.04 0.04 0.04 0.04 0.05 0.05 0.05 0.03 0.03 0.04 0.03 0.03 0.04 0.05
0.00 0.00 0.00 0.00 0.00 0.01 0.01 0.02 0.04 0.05 0.05 0.04 0.07 0.10 0.08 0.06 0.06 0.04 0.03 0.02 0.02 0.03 0.02 0.02 0.03 0.03 0.02 0.03 0.03 0.04 0.04 0.04 0.04 0.04 0.04 0.04 0.03 0.03 0.03 0.03 0.03 0.04 0.04 0.02 0.02 0.02 0.02 0.02 0.03
0.00 0.00 0.00 0.00 0.01 0.01 0.01 0.02 0.04 0.03 0.03 0.03 0.06 0.10 0.09 0.07 0.05 0.03 0.02 0.02 0.01 0.01 0.03 0.03 0.02 0.02 0.01 0.01 0.01 0.02 0.03 0.04 0.04 0.04 0.04 0.03 0.03 0.03 0.04 0.04 0.03 0.03 0.03 0.02 0.01 0.01 0.02 0.02 0.02
0.00 0.00 0.00 0.00 0.00 0.00 0.01 0.01 0.01 0.01 0.01 0.02 0.04 0.08 0.09 0.07 0.05 0.03 0.02 0.01 0.01 0.01 0.02 0.03 0.02 0.02 0.01 0.01 0.01 0.01 0.02 0.02 0.03 0.03 0.03 0.02 0.02 0.02 0.02 0.02 0.02 0.02 0.02 0.01 0.01 0.01 0.01 0.03 0.04
0.00 0.00 0.00 0.01 0.00 0.00 0.00 0.01 0.01 0.01 0.01 0.03 0.04 0.05 0.05 0.04 0.03 0.02 0.01 0.01 0.01 0.01 0.02 0.03 0.02 0.01 0.01 0.01 0.01 0.01 0.01 0.01 0.01 0.01 0.01 0.01 0.01 0.01 0.01 0.01 0.01 0.01 0.00 0.01 0.01 0.01 0.01 0.02 0.03
0.00 0.00 0.00 0.00 0.00 0.00 0.00 0.01 0.01 0.01 0.02 0.02 0.02 0.02 0.03 0.03 0.03 0.02 0.02 0.01 0.01 0.01 0.02 0.02 0.02 0.01 0.01 0.01 0.01 0.01 0.01 0.01 0.01 0.00 0.00 0.00 0.01 0.01 0.01 0.01 0.01 0.01 0.01 0.01 0.01 0.01 0.01 0.01 0.02
0.00 0.00 0.00 0.00 0.00 0.00 0.01 0.01 0.01 0.01 0.01 0.01 0.02 0.03 0.04 0.05 0.05 0.03 0.02 0.02 0.01 0.01 0.02 0.02 0.02 0.02 0.02 0.02 0.01 0.02 0.01 0.01 0.01 0.01 0.01 0.01 0.01 0.01 0.00 0.00 0.00 0.00 0.00 0.00 0.00 0.00 0.00 0.01 0.02
0.00 0.00 0.00 0.00 0.00 0.00 0.00 0.00 0.01 0.02 0.01 0.01 0.03 0.03 0.05 0.06 0.05 0.03 0.03 0.02 0.01 0.01 0.01 0.01 0.01 0.03 0.04 0.02 0.01 0.01 0.01 0.01 0.01 0.01 0.01 0.01 0.01 0.01 0.01 0.00 0.00 0.00 0.00 0.00 0.00 0.00 0.00 0.00 0.01
0.00 0.00 0.00 0.00 0.00 0.00 0.00 0.00 0.00 0.01 0.01 0.02 0.02 0.02 0.03 0.04 0.04 0.03 0.02 0.01 0.01 0.01 0.01 0.01 0.01 0.01 0.02 0.01 0.01 0.01 0.01 0.00 0.00 0.01 0.01 0.01 0.01 0.00 0.00 0.00 0.00 0.00 0.00 0.00 0.00 0.00 0.00 0.00 0.00
MSLP
1010.49 1011.50 1012.70 1013.86 1014.80 1015.35 1015.46 1015.15 1014.56 1013.86 1013.26 1012.88 1012.80 1013.01 1013.42 1013.90 1014.30 1014.55 1014.59 1014.45 1014.22 1013.99 1013.86 1013.88 1014.06 1014.35 1014.68 1015.00 1015.25 1015.42 1015.53 1015.64 1015.80 1016.04 1016.39 1016.80 1017.24 1017.63 1017.93 1018.11 1018.17 1018.16 1018.13 1018.12 1018.19 1018.34 1018.55 1018.80 1019.02
1010.92 1012.09 1013.36 1014.51 1015.34 1015.72 1015.61 1015.10 1014.32 1013.49 1012.81 1012.41 1012.37 1012.65 1013.15 1013.72 1014.21 1014.51 1014.61 1014.52 1014.34 1014.17 1014.10 1014.18 1014.43 1014.78 1015.19 1015.56 1015.85 1016.05 1016.18 1016.28 1016.42 1016.63 1016.92 1017.27 1017.62 1017.94 1018.16 1018.28 1018.30 1018.26 1018.23 1018.24 1018.33 1018.50 1018.73 1018.98 1019.20
1011.48 1012.72 1013.99 1015.05 1015.73 1015.93 1015.64 1014.97 1014.08 1013.20 1012.53 1012.18 1012.22 1012.58 1013.14 1013.76 1014.27 1014.59 1014.68 1014.60 1014.43 1014.28 1014.25 1014.40 1014.71 1015.14 1015.62 1016.05 1016.40 1016.63 1016.78 1016.88 1017.00 1017.16 1017.38 1017.65 1017.93 1018.16 1018.32 1018.39 1018.39 1018.36 1018.34 1018.38 1018.51 1018.71 1018.96 1019.21 1019.42
1012.10 1013.35 1014.54 1015.47 1015.97 1016.00 1015.57 1014.81 1013.91 1013.07 1012.48 1012.25 1012.39 1012.83 1013.44 1014.05 1014.53 1014.78 1014.81 1014.68 1014.48 1014.33 1014.32 1014.51 1014.88 1015.38 1015.92 1016.42 1016.81 1017.08 1017.24 1017.34 1017.43 1017.56 1017.73 1017.94 1018.15 1018.33 1018.44 1018.49 1018.49 1018.48 1018.50 1018.58 1018.75 1018.98 1019.24 1019.49 1019.68
1012.73 1013.91 1014.96 1015.72 1016.05 1015.94 1015.44 1014.68 1013.84 1013.14 1012.71 1012.63 1012.88 1013.38 1013.99 1014.55 1014.93 1015.07 1014.99 1014.76 1014.49 1014.31 1014.31 1014.52 1014.93 1015.48 1016.07 1016.60 1017.03 1017.32 1017.50 1017.60 1017.68 1017.79 1017.93 1018.11 1018.28 1018.44 1018.54 1018.59 1018.61 1018.64 1018.70 1018.83 1019.03 1019.28 1019.54 1019.77 1019.94
1013.28 1014.33 1015.20 1015.77 1015.95 1015.75 1015.24 1014.56 1013.88 1013.37 1013.14 1013.23 1013.60 1014.15 1014.72 1015.18 1015.42 1015.41 1015.19 1014.84 1014.50 1014.27 1014.25 1014.47 1014.91 1015.47 1016.07 1016.62 1017.05 1017.35 1017.53 1017.65 1017.74 1017.85 1018.00 1018.17 1018.36 1018.52 1018.64 1018.72 1018.77 1018.82 1018.92 1019.07 1019.29 1019.53 1019.78 1019.99 1020.13
1013.65 1014.53 1015.21 1015.60 1015.67 1015.43 1014.97 1014.44 1013.97 1013.70 1013.69 1013.96 1014.43 1014.98 1015.49 1015.83 1015.92 1015.75 1015.38 1014.93 1014.52 1014.26 1014.23 1014.44 1014.86 1015.41 1015.99 1016.51 1016.92 1017.21 1017.39 1017.51 1017.63 1017.77 1017.95 1018.17 1018.39 1018.58 1018.73 1018.84 1018.91 1018.99 1019.09 1019.24 1019.45 1019.68 1019.90 1020.08 1020.19
1013.82 1014.52 1015.01 1015.25 1015.24 1015.01 1014.66 1014.31 1014.08 1014.05 1014.26 1014.68 1015.22 1015.76 1016.18 1016.39 1016.33 1016.03 1015.56 1015.04 1014.59 1014.32 1014.28 1014.49 1014.89 1015.40 1015.92 1016.38 1016.74 1016.99 1017.15 1017.28 1017.42 1017.60 1017.84 1018.12 1018.39 1018.63 1018.81 1018.93 1019.01 1019.08 1019.16 1019.29 1019.46 1019.65 1019.84 1019.99 1020.08
1013.80 1014.32 1014.65 1014.78 1014.72 1014.54 1014.33 1014.18 1014.17 1014.37 1014.76 1015.29 1015.86 1016.36 1016.70 1016.79 1016.61 1016.22 1015.70 1015.17 1014.74 1014.50 1014.48 1014.68 1015.05 1015.50 1015.94 1016.31 1016.58 1016.76 1016.89 1017.01 1017.18 1017.41 1017.71 1018.04 1018.37 1018.65 1018.85 1018.98 1019.04 1019.07 1019.11 1019.19 1019.30 1019.45 1019.61 1019.74 1019.82
1013.68 1014.04 1014.24 1014.28 1014.21 1014.11 1014.04 1014.08 1014.28 1014.65 1015.17 1015.76 1016.32 1016.77 1017.01 1017.00 1016.76 1016.33 1015.82 1015.34 1014.98 1014.80 1014.83 1015.04 1015.38 1015.75 1016.09 1016.34 1016.51 1016.61 1016.68 1016.79 1016.97 1017.24 1017.58 1017.97 1018.33 1018.64 1018.85 1018.96 1018.98 1018.96 1018.95 1018.96 1019.02 1019.13 1019.26 1019.39 1019.48
1013.54 1013.78 1013.87 1013.87 1013.82 1013.80 1013.87 1014.07 1014.42 1014.92 1015.50 1016.10 1016.61 1016.98 1017.13 1017.05 1016.78 1016.37 1015.93 1015.55 1015.29 1015.21 1015.31 1015.54 1015.84 1016.13 1016.36 1016.50 1016.55 1016.55 1016.56 1016.63 1016.81 1017.09 1017.47 1017.88 1018.27 1018.59 1018.79 1018.87 1018.86 1018.79 1018.71 1018.67 1018.69 1018.77 1018.89 1019.02 1019.14
1013.49 1013.63 1013.66 1013.65 1013.64 1013.70 1013.89 1014.21 1014.66 1015.22 1015.81 1016.36 1016.80 1017.07 1017.14 1017.02 1016.74 1016.39 1016.05 1015.79 1015.67 1015.70 1015.86 1016.11 1016.37 1016.59 1016.71 1016.73 1016.68 1016.58 1016.52 1016.55 1016.70 1016.99 1017.36 1017.78 1018.18 1018.49 1018.68 1018.74 1018.69 1018.59 1018.47 1018.40 1018.39 1018.46 1018.59 1018.74 1018.89
1013.60 1013.67 1013.66 1013.65 1013.70 1013.84 1014.12 1014.53 1015.04 1015.60 1016.15 1016.62 1016.96 1017.12 1017.12 1016.97 1016.72 1016.44 1016.20 1016.07 1016.06 1016.19 1016.41 1016.67 1016.90 1017.04 1017.08 1017.00 1016.85 1016.68 1016.55 1016.53 1016.65 1016.90 1017.26 1017.66 1018.04 1018.34 1018.52 1018.57 1018.52 1018.40 1018.28 1018.21 1018.21 1018.28 1018.43 1018.61 1018.78
1013.84 1013.87 1013.86 1013.88 1013.99 1014.22 1014.57 1015.03 1015.55 1016.08 1016.56 1016.92 1017.15 1017.22 1017.16 1016.98 1016.76 1016.55 1016.41 1016.38 1016.46 1016.65 1016.90 1017.15 1017.34 1017.43 1017.39 1017.24 1017.03 1016.80 1016.62 1016.55 1016.62 1016.83 1017.14 1017.50 1017.85 1018.14 1018.32 1018.38 1018.34 1018.26 1018.17 1018.12 1018.15 1018.26 1018.43 1018.63 1018.82
1014.17 1014.17 1014.18 1014.25 1014.44 1014.74 1015.16 1015.65 1016.16 1016.64 1017.03 1017.29 1017.42 1017.41 1017.29 1017.11 1016.91 1016.76 1016.68 1016.72 1016.85 1017.06 1017.30 1017.52 1017.67 1017.70 1017.63 1017.44 1017.19 1016.93 1016.72 1016.61 1016.63 1016.77 1017.02 1017.33 1017.64 1017.89 1018.07 1018.16 1018.17 1018.15 1018.12 1018.13 1018.21 1018.35 1018.54 1018.75 1018.94
1014.48 1014.48 1014.53 1014.67 1014.94 1015.33 1015.80 1016.31 1016.80 1017.22 1017.52 1017.69 1017.74 1017.67 1017.52 1017.34 1017.18 1017.07 1017.04 1017.09 1017.23 1017.42 1017.62 1017.79 1017.89 1017.90 1017.80 1017.60 1017.36 1017.10 1016.87 1016.73 1016.69 1016.76 1016.93 1017.16 1017.40 1017.63 1017.81 1017.93 1018.00 1018.04 1018.09 1018.17 1018.30 1018.47 1018.68 1018.89 1019.06
1014.66 1014.69 1014.80 1015.04 1015.41 1015.88 1016.40 1016.92 1017.38 1017.74 1017.96 1018.06 1018.04 1017.95 1017.80 1017.65 1017.53 1017.47 1017.46 1017.53 1017.64 1017.78 1017.92 1018.03 1018.08 1018.06 1017.96 1017.79 1017.57 1017.33 1017.11 1016.94 1016.84 1016.83 1016.90 1017.02 1017.19 1017.36 1017.53 1017.67 1017.80 1017.92 1018.04 1018.19 1018.36 1018.56 1018.77 1018.96 1019.11
1014.68 1014.77 1014.97 1015.32 1015.78 1016.33 1016.89 1017.41 1017.83 1018.12 1018.28 1018.32 1018.27 1018.17 1018.07 1017.98 1017.92 1017.92 1017.95 1018.01 1018.09 1018.17 1018.24 1018.28 1018.29 1018.26 1018.18 1018.05 1017.88 1017.68 1017.48 1017.29 1017.13 1017.02 1016.97 1016.98 1017.04 1017.14 1017.27 1017.42 1017.59 1017.76 1017.94 1018.14 1018.34 1018.55 1018.75 1018.92 1019.04
1014.55 1014.71 1015.03 1015.50 1016.07 1016.68 1017.26 1017.76 1018.12 1018.33 1018.41 1018.40 1018.34 1018.27 1018.24 1018.24 1018.29 1018.36 1018.45 1018.53 1018.59 1018.63 1018.64 1018.63 1018.61 1018.57 1018.52 1018.44 1018.33 1018.18 1018.00 1017.79 1017.57 1017.36 1017.19 1017.06 1017.01 1017.01 1017.08 1017.21 1017.38 1017.58 1017.79 1018.01 1018.22 1018.43 1018.60 1018.75 1018.86
1014.33 1014.61 1015.05 1015.65 1016.31 1016.97 1017.54 1017.98 1018.25 1018.35 1018.35 1018.28 1018.22 1018.20 1018.26 1018.39 1018.57 1018.77 1018.95 1019.08 1019.15 1019.16 1019.14 1019.09 1019.05 1019.01 1018.99 1018.96 1018.91 1018.81 1018.65 1018.43 1018.15 1017.85 1017.56 1017.30 1017.11 1017.01 1017.00 1017.08 1017.22 1017.41 1017.63 1017.85 1018.05 1018.23 1018.38 1018.50 1018.59
1014.14 1014.55 1015.15 1015.86 1016.59 1017.27 1017.79 1018.13 1018.26 1018.23 1018.11 1017.98 1017.90 1017.94 1018.10 1018.38 1018.72 1019.08 1019.39 1019.61 1019.73 1019.76 1019.72 1019.65 1019.60 1019.57 1019.57 1019.59 1019.59 1019.53 1019.40 1019.17 1018.84 1018.46 1018.06 1017.68 1017.37 1017.16 1017.06 1017.07 1017.17 1017.33 1017.52 1017.71 1017.88 1018.03 1018.14 1018.23 1018.31
1014.10 1014.67 1015.40 1016.21 1017.00 1017.65 1018.09 1018.28 1018.24 1018.04 1017.77 1017.55 1017.45 1017.53 1017.80 1018.23 1018.76 1019.28 1019.75 1020.09 1020.29 1020.36 1020.34 1020.27 1020.21 1020.19 1020.21 1020.25 1020.29 1020.27 1020.15 1019.92 1019.57 1019.13 1018.65 1018.18 1017.77 1017.46 1017.27 1017.21 1017.25 1017.36 1017.51 1017.66 1017.79 1017.89 1017.96 1018.02 1018.08
1014.29 1015.01 1015.86 1016.76 1017.55 1018.14 1018.46 1018.48 1018.24 1017.84 1017.42 1017.09 1016.95 1017.06 1017.42 1018.00 1018.69 1019.40 1020.02 1020.50 1020.80 1020.93 1020.94 1020.88 1020.81 1020.78 1020.81 1020.87 1020.92 1020.92 1020.83 1020.61 1020.25 1019.79 1019.26 1018.73 1018.25 1017.88 1017.62 1017.50 1017.48 1017.54 1017.63 1017.72 1017.80 1017.85 1017.88 1017.90 1017.94
1014.71 1015.57 1016.53 1017.47 1018.24 1018.75 1018.91 1018.74 1018.31 1017.71 1017.12 1016.68 1016.49 1016.61 1017.06 1017.75 1018.60 1019.46 1020.24 1020.84 1021.24 1021.44 1021.47 1021.42 1021.35 1021.31 1021.32 1021.37 1021.42 1021.44 1021.36 1021.15 1020.80 1020.34 1019.81 1019.27 1018.76 1018.35 1018.05 1017.88 1017.81 1017.82 1017.86 1017.90 1017.92 1017.92 1017.90 1017.88 1017.87
1015.33 1016.29 1017.32 1018.26 1018.99 1019.39 1019.41 1019.06 1018.44 1017.67 1016.94 1016.40 1016.17 1016.30 1016.80 1017.59 1018.54 1019.54 1020.43 1021.14 1021.62 1021.87 1021.93 1021.88 1021.79 1021.72 1021.70 1021.72 1021.76 1021.77 1021.70 1021.51 1021.18 1020.75 1020.24 1019.71 1019.21 1018.80 1018.48 1018.29 1018.19 1018.16 1018.15 1018.14 1018.11 1018.05 1017.98 1017.90 1017.85
1016.04 1017.06 1018.11 1019.03 1019.69 1019.98 1019.86 1019.37 1018.61 1017.73 1016.91 1016.31 1016.06 1016.20 1016.74 1017.58 1018.61 1019.68 1020.66 1021.44 1021.97 1022.25 1022.33 1022.27 1022.15 1022.04 1021.97 1021.95 1021.95 1021.94 1021.86 1021.67 1021.38 1020.98 1020.51 1020.02 1019.55 1019.15 1018.85 1018.65 1018.53 1018.47 1018.43 1018.38 1018.30 1018.19 1018.07 1017.94 1017.83
1016.73 1017.77 1018.79 1019.65 1020.23 1020.42 1020.20 1019.62 1018.79 1017.86 1017.02 1016.42 1016.18 1016.35 1016.92 1017.79 1018.86 1019.96 1020.96 1021.76 1022.31 1022.60 1022.68 1022.60 1022.45 1022.29 1022.17 1022.09 1022.04 1021.98 1021.88 1021.69 1021.41 1021.04 1020.61 1020.16 1019.74 1019.38 1019.10 1018.90 1018.78 1018.70 1018.63 1018.54 1018.43 1018.28 1018.12 1017.94 1017.78
1017.32 1018.32 1019.26 1020.04 1020.51 1020.62 1020.35 1019.75 1018.93 1018.04 1017.26 1016.72 1016.54 1016.76 1017.35 1018.23 1019.29 1020.38 1021.36 1022.15 1022.68 1022.96 1023.02 1022.92 1022.73 1022.53 1022.35 1022.20 1022.09 1021.97 1021.82 1021.61 1021.32 1020.97 1020.58 1020.17 1019.79 1019.46 1019.21 1019.02 1018.90 1018.81 1018.72 1018.62 1018.48 1018.31 1018.11 1017.90 1017.71
1017.75 1018.64 1019.47 1020.13 1020.51 1020.56 1020.28 1019.72 1018.99 1018.22 1017.57 1017.16 1017.09 1017.37 1017.99 1018.87 1019.90 1020.93 1021.86 1022.60 1023.09 1023.33 1023.37 1023.24 1023.03 1022.78 1022.55 1022.34 1022.15 1021.96 1021.75 1021.50 1021.20 1020.84 1020.46 1020.08 1019.73 1019.43 1019.20 1019.04 1018.92 1018.82 1018.73 1018.61 1018.46 1018.28 1018.07 1017.86 1017.65
1018.00 1018.76 1019.44 1019.96 1020.24 1020.25 1020.00 1019.53 1018.95 1018.37 1017.91 1017.68 1017.74 1018.12 1018.77 1019.64 1020.60 1021.56 1022.41 1023.07 1023.50 1023.71 1023.72 1023.58 1023.34 1023.07 1022.79 1022.52 1022.27 1022.01 1021.73 1021.43 1021.08 1020.71 1020.33 1019.97 1019.64 1019.37 1019.16 1019.00 1018.89 1018.80 1018.70 1018.59 1018.44 1018.27 1018.07 1017.86 1017.67
Thickness
5789 5790 5790 5780 5758 5735 5737 5751 5765 5771 5778 5790 5794 5789 5781 5774 5767 5763 5782 5791 5788 5784 5779 5776 5773 5772 5770 5769 5768 5767 5765 5764 5763 5761 5759 5757 5755 5753 5752 5751 5749 5748 5747 5746 5745 5744 5742 5741 5739
5786 5787 5780 5764 5739 5724 5733 5753 5761 5771 5783 5791 5791 5788 5780 5775 5779 5778 5781 5784 5784 5780 5776 5773 5771 5769 5768 5766 5764 5763 5761 5760 5759 5757 5756 5754 5752 5751 5749 5748 5747 5746 5745 5744 5742 5741 5740 5738 5737
5784 5782 5764 5746 5731 5726 5741 5758 5765 5775 5786 5787 5782 5782 5775 5770 5776 5777 5780 5781 5778 5775 5771 5770 5768 5766 5764 5762 5761 5759 5757 5756 5755 5753 5752 5750 5749 5748 5746 5745 5744 5743 5742 5741 5740 5738 5737 5736 5734
5776 5766 5752 5736 5734 5739 5748 5761 5769 5773 5781 5784 5779 5769 5770 5774 5776 5777 5778 5776 5773 5770 5767 5765 5764 5762 5760 5759 5757 5755 5753 5752 5750 5749 5748 5746 5745 5744 5743 5742 5741 5740 5739 5738 5737 5735 5734 5733 5732
5767 5751 5735 5724 5733 5744 5755 5765 5771 5770 5773 5776 5775 5762 5759 5768 5775 5775 5773 5771 5768 5765 5762 5760 5759 5758 5756 5755 5753 5751 5750 5748 5746 5745 5743 5742 5741 5741 5740 5738 5737 5737 5736 5735 5734 5732 5732 5730 5729
5748 5738 5719 5717 5731 5745 5756 5766 5768 5767 5768 5772 5769 5757 5753 5763 5767 5767 5768 5766 5764 5761 5758 5755 5754 5753 5752 5750 5749 5747 5746 5745 5743 5741 5740 5739 5738 5737 5736 5735 5734 5733 5732 5731 5730 5729 5728 5728 5727
5739 5728 5720 5725 5730 5740 5755 5765 5763 5761 5761 5764 5767 5753 5750 5756 5761 5764 5763 5761 5759 5757 5754 5751 5749 5748 5747 5745 5744 5743 5741 5740 5739 5738 5737 5735 5734 5733 5733 5732 5731 5730 5729 5728 5727 5726 5725 5724 5724
5743 5729 5723 5722 5729 5738 5753 5759 5760 5759 5758 5767 5766 5751 5746 5753 5758 5759 5758 5756 5754 5752 5749 5747 5746 5745 5744 5742 5740 5738 5737 5736 5734 5734 5733 5732 5731 5730 5729 5728 5727 5726 5725 5724 5723 5722 5721 5721 5721
5743 5718 5712 5724 5731 5739 5750 5751 5755 5761 5759 5758 5759 5757 5756 5755 5754 5752 5749 5747 5747 5746 5745 5743 5742 5741 5740 5738 5736 5734 5732 5731 5730 5729 5728 5727 5727 5726 5725 5724 5724 5723 5722 5721 5721 5719 5718 5718 5717
5730 5711 5722 5735 5741 5743 5746 5747 5750 5751 5748 5746 5747 5750 5751 5749 5746 5743 5741 5740 5739 5738 5739 5738 5738 5737 5735 5733 5731 5730 5728 5726 5725 5724 5723 5723 5722 5721 5721 5720 5719 5719 5719 5718 5718 5717 5716 5715 5714
5729 5721 5731 5739 5745 5746 5744 5744 5749 5744 5737 5742 5742 5742 5743 5741 5738 5736 5734 5734 5734 5733 5732 5732 5732 5731 5729 5727 5725 5724 5723 5721 5720 5719 5719 5718 5718 5717 5716 5716 5715 5715 5715 5714 5714 5713 5712 5711 5711
5726 5730 5735 5739 5744 5744 5741 5741 5739 5738 5739 5745 5744 5742 5738 5733 5730 5729 5727 5727 5727 5725 5725 5725 5725 5724 5723 5722 5720 5718 5717 5716 5715 5714 5714 5713 5712 5711 5711 5711 5711 5711 5710 5710 5710 5709 5708 5707 5707
5724 5728 5734 5737 5738 5738 5738 5734 5732 5729 5736 5738 5736 5733 5729 5726 5724 5723 5721 5720 5719 5718 5717 5718 5718 5718 5717 5716 5714 5712 5711 5710 5709 5708 5708 5708 5707 5706 5705 5706 5706 5705 5705 5705 5705 5704 5703 5703 5702
5726 5727 5729 5731 5733 5734 5729 5726 5726 5722 5729 5728 5725 5722 5720 5719 5717 5715 5714 5713 5712 5711 5711 5712 5712 5711 5710 5709 5707 5705 5705 5704 5703 5703 5702 5701 5701 5700 5699 5700 5700 5700 5700 5700 5700 5699 5699 5699 5698
5727 5721 5721 5724 5727 5727 5727 5714 5715 5720 5722 5719 5716 5715 5713 5711 5711 5709 5708 5707 5706 5705 5704 5705 5705 5705 5704 5703 5701 5699 5699 5698 5697 5696 5696 5695 5695 5694 5693 5693 5694 5694 5694 5694 5694 5694 5694 5693 5693
5718 5709 5703 5715 5722 5723 5718 5699 5709 5716 5715 5710 5710 5709 5706 5704 5704 5703 5702 5701 5700 5699 5698 5698 5699 5698 5697 5697 5695 5694 5693 5692 5690 5690 5689 5689 5688 5688 5687 5687 5687 5687 5687 5687 5687 5688 5687 5687 5687
5697 5692 5697 5707 5717 5717 5711 5700 5707 5711 5710 5705 5704 5703 5700 5698 5697 5697 5696 5694 5693 5693 5692 5691 5692 5691 5690 5690 5689 5687 5686 5685 5684 5683 5682 5682 5681 5681 5681 5680 5680 5680 5680 5680 5681 5681 5680 5680 5680
5689 5692 5696 5698 5709 5709 5703 5700 5703 5706 5704 5700 5699 5697 5695 5692 5690 5690 5689 5688 5688 5687 5687 5685 5686 5685 5684 5684 5682 5680 5679 5677 5676 5675 5674 5673 5673 5673 5673 5673 5672 5672 5672 5673 5673 5673 5673 5673 5673
5702 5696 5692 5699 5710 5704 5698 5697 5699 5701 5699 5696 5694 5692 5690 5688 5686 5686 5685 5683 5682 5681 5681 5680 5679 5677 5676 5675 5674 5672 5670 5669 5668 5667 5666 5665 5665 5665 5665 5664 5664 5664 5664 5665 5665 5665 5665 5665 5665
5699 5694 5691 5698 5707 5701 5691 5691 5696 5698 5696 5695 5692 5689 5687 5684 5681 5679 5678 5677 5676 5675 5674 5673 5672 5670 5669 5668 5666 5665 5663 5661 5660 5659 5658 5657 5657 5657 5656 5655 5655 5655 5656 5656 5657 5657 5656 5656 5657
5698 5694 5695 5695 5697 5696 5689 5681 5688 5693 5694 5693 5691 5688 5684 5681 5677 5675 5673 5670 5669 5668 5667 5666 5664 5663 5662 5661 5659 5658 5655 5653 5652 5650 5649 5648 5648 5648 5647 5647 5647 5647 5647 5647 5647 5648 5648 5648 5648
5694 5706 5703 5698 5686 5675 5683 5666 5679 5685 5686 5688 5686 5683 5680 5677 5673 5670 5667 5665 5663 5661 5660 5659 5657 5656 5654 5652 5650 5648 5645 5642 5641 5640 5639 5639 5639 5639 5638 5638 5638 5637 5637 5638 5638 5639 5640 5640 5640
5703 5708 5701 5694 5681 5671 5673 5665 5669 5680 5680 5684 5685 5681 5677 5673 5669 5665 5662 5659 5656 5653 5652 5651 5649 5647 5645 5644 5642 5639 5637 5634 5632 5631 5631 5630 5630 5629 5629 5629 5628 5628 5628 5629 5629 5630 5631 5631 5632
5708 5697 5688 5676 5669 5658 5666 5661 5665 5673 5682 5686 5684 5680 5675 5669 5664 5660 5656 5652 5648 5646 5643 5642 5640 5638 5636 5635 5633 5630 5628 5625 5624 5623 5621 5620 5620 5619 5619 5619 5619 5619 5619 5620 5620 5621 5622 5622 5623
5700 5679 5659 5656 5646 5650 5664 5660 5665 5683 5688 5689 5684 5678 5672 5666 5660 5655 5650 5645 5641 5638 5635 5634 5632 5628 5626 5625 5623 5621 5619 5617 5615 5613 5611 5610 5609 5609 5609 5609 5609 5609 5610 5611 5611 5612 5613 5614 5615
5692 5683 5659 5649 5644 5647 5657 5656 5671 5685 5687 5688 5683 5676 5668 5662 5656 5650 5645 5640 5635 5631 5628 5626 5623 5620 5618 5616 5614 5612 5611 5609 5607 5605 5603 5600 5599 5599 5599 5600 5600 5600 5601 5602 5602 5603 5603 5604 5606
5687 5678 5679 5658 5650 5643 5648 5660 5673 5681 5680 5678 5674 5669 5663 5656 5650 5645 5639 5634 5629 5624 5621 5618 5615 5612 5610 5608 5605 5603 5601 5600 5598 5596 5594 5592 5590 5590 5590 5590 5591 5591 5591 5592 5593 5593 5594 5595 5596
5695 5679 5664 5654 5642 5638 5648 5654 5660 5671 5672 5671 5667 5662 5657 5651 5645 5638 5633 5627 5621 5617 5613 5610 5607 5605 5602 5600 5597 5594 5591 5590 5588 5587 5585 5583 5582 5581 5581 5581 5581 5581 5581 5582 5583 5584 5585 5586 5587
5684 5676 5663 5650 5650 5639 5636 5649 5674 5673 5674 5669 5664 5659 5653 5646 5640 5633 5627 5621 5614 5610 5605 5602 5600 5597 5593 5590 5587 5584 5581 5580 5579 5577 5575 5574 5573 5572 5572 5572 5572 5572 5572 5573 5574 5574 5575 5577 5578
5687 5678 5665 5654 5647 5642 5638 5648 5675 5674 5671 5666 5660 5654 5647 5640 5633 5626 5620 5613 5607 5602 5598 5594 5592 5588 5584 5581 5578 5575 5572 5571 5569 5568 5566 5565 5564 5564 5563 5563 5562 5563 5563 5564 5564 5565 5566 5567 5569